Regional Weather Roundup
Issued by NWS

Home | Current Version | Previous Version | Graphics & Text | Print | Product List | Glossary On
Versions: 1 2 3 4 5 6 7 8 9 10 11 12 13 14 15 16 17 18 19 20 21 22 23 24 25 26 27 28
000
ASUS45 KBOI 220610
RWRID

IDAHO REGIONAL WEATHER ROUNDUP
NATIONAL WEATHER SERVICE BOISE ID
1100 PM MST SUN JAN 21 2018

NOTE: "FAIR" INDICATES FEW OR NO CLOUDS BELOW 12000 FEET
WITH NO SIGNIFICANT WEATHER AND/OR OBSTRUCTIONS TO VISIBILITY

IDZ012-014-220700-
SOUTHWEST IDAHO


CITY           SKY/WX    TMP DP  RH WIND       PRES   REMARKS
BOISE          CLOUDY    39  29  67 SE13G18   30.19R WCI  31
CALDWELL       LGT RAIN  36  33  89 E7        30.20R WCI  30
$$

IDZ016-017-220700-
SOUTHCENTRAL IDAHO


CITY           SKY/WX    TMP DP  RH WIND       PRES   REMARKS
BURLEY         PTCLDY    31  21  66 S14       30.19S WCI  21
JEROME         MOCLDY    31  21  66 SE7       30.21S WCI  24
TWIN FALLS     MOCLDY    31  21  66 S10       30.20R WCI  22
$$

IDZ019>023-220700-
SOUTHEAST IDAHO


CITY           SKY/WX    TMP DP  RH WIND       PRES   REMARKS
IDAHO FALLS    PTCLDY    26  19  74 S6        30.22R WCI  19
POCATELLO      CLEAR     29  19  66 S9        30.22R WCI  20
REXBURG        CLOUDY    20  16  84 N5        30.21S WCI  13
$$

IDZ006-010-011-018-031-032-220700-
CENTRAL IDAHO MOUNTAINS


CITY           SKY/WX    TMP DP  RH WIND       PRES   REMARKS
MCCALL         LGT SNOW  27  25  92 CALM      30.09R FOG
HAILEY         PTCLDY    19  12  73 W8        30.20S WCI   9
STANLEY          N/A     13   9  84 CALM      30.11S
SALMON         CLOUDY    21  18  88 NE3       30.17S
CHALLIS        CLOUDY    24  17  74 CALM      30.14R
$$

IDZ002-004-006-007-026-220700-
NORTHERN IDAHO


CITY           SKY/WX    TMP DP  RH WIND       PRES   REMARKS
LEWISTON       CLOUDY    43  33  68 S8        30.07R
LOWELL           N/A     35  34  96 CALM      30.14S
COEUR D`ALENE  CLOUDY    36  33  89 S15       29.99R WCI  27
MULLAN PASS    LGT SNOW  24  23  96 VRB6      29.90R FOG     WCI  17
$$




USA.gov is the U.S. government's official web portal to all federal, state and local government web resources and services.